Location: Ermatingen
(47.6706°N, 9.0857°E)
Time: 06:22:36
(UTC+00:00)

Cosmos 2227 - Pass Details

Date: 18 September 2020
Orbit: 836 x 859 km, 71.0° (Epoch: 22 October)

Event Time Altitude Azimuth Distance (km) Brightness Sun altitude
Rises 17:57:09 0° 195° (SSW) 3,419 7.5 -5.5°
Reaches altitude 10° 17:59:37 10° 193° (SSW) 2,485 6.7 -6.0°
Maximum altitude 18:05:16 65° 113° (ESE) 940 4.2 -6.9°
Drops below altitude 10° 18:10:55 10° 32° (NNE) 2,490 6.4 -7.8°
Sets 18:13:23 0° 30° (NNE) 3,426 7.2 -8.2°
